EHI
0 0 0 0 0 0 0 0 0 0 0 0 0 0 0 0 0 0 0 0 0 0 0 0 0 0 0 0 0 0 0 0 0 0 0 0 0 0 0 0 0 0 0 0 0 0 0 0 0
0 0 0 0 0 0 0 0 0 0 0 0 0 0 0 0 0 0 0 0 0 0 0 0 0 0 0 0 0 0 0 0 0 0 0 0 0 0 0 0 0 0 0 0 0 0 0 0 0
0 0 0 0 0 0 0 0 0 0 0 0 0 0 0 0 0 0 0 0 0 0 0 0 0 0 0 0 0 0 0 0 0 0 0 0 0 0 0 0 0 0 0 0 0 0 0 0 0
0 0 0 0 0 0 0 0 0 0 0 0 0 0 0 0 0 0 0 0 0 0 0 0 0 0 0 0 0 0 0 0 0 0 0 0 0 0 0 0 0 0 0 0 0 0 0 0 0
0 0 0 0 0 0 0 0 0 0 0 0 0 0 0 0 0 0 0 0 0 0 0 0 0 0 0 0 0 0 0 0 0 0 0 0 0 0 0 0 0 0 0 0 0 0 0 0 0
0 0 0 0 0 0 0 0 0 0 0 0 0 0 0 0 0 0 0 0 0 0 0 0 0 0 0 0 0 0 0 0 0 0 0 0 0 0 0 0 0 0 0 0 0 0 0 0 0
0 0 0 0 0 0 0 0 0 0 0 0 0 0 0 0 0 0 0 0 0 0 0 0 0 0 0 0 0 0 0 0 0 0 0 0 0 0 0 0 0 0 0 0 0 0 0 0 0
0 0 0 0 0 0 0 0 0 0 0 0 0 0 0 0 0 0 0 0 0 0 0 0 0 0 0 0 0 0 0 0 0 0 0 0 0 0 0 0 0 0 0 0 0 0 0 0 0
0 0 0 0 0 0 0 0 0 0 0 0 0 0 0 0 0 0 0 0 0 0 0 0 0 0 0 0 0 0 0 0 0 0 0 0 0 0 0 0 0 0 0 0 0 0 0 0 0
0 0 0 0 0 0 0 0 0 0 0 0 0 0 0 0 0 0 0 0 0 0 0 0 0 0 0 0 0 0 0 0 0 0 0 0 0 0 0 0 0 0 0 0 0 0 0 0 0
0 0 0 0 0 0 0 0 0 0 0 0 0 0 0 0 0 0 0 0 0 0 0 0 0 0 0 0 0 0 0 0 0 0 0 0 0 0 0 0 0 0 0 0 0 0 0 0 0
0 0 0 0 0 0 0 0 0 0 0 0 0 0 0 0 0 0 0 0 0 0 0 0 0 0 0 0 0 0 0 0 0 0 0 0 0 0 0 0 0 0 0 0 0 0 0 0 0
0 0 0 0 0 0 0 0 0 0 0 0 0 0 0 0 0 0 0 0 0 0 0 0 0 0 0 0 0 0 0 0 0 0 0 0 0 0 0 0 0 0 0 0 0 0 0 0 0
0 0 0 0 0 0 0 0 0 0 0 0 0 0 0 0 0 0 0 0 0 0 0 0 0 0 0 0 0 0 0 0 0 0 0 0 0 0 0 0 0 0 0 0 0 0 0 0 0
0 0 0 0 0 0 0 0 0 0 0 0 0 0 0 0 0 0 0 0 0 0 0 0 0 0 0 0 0 0 0 0 0 0 0 0 0 0 0 0 0 0 0 0 0 0 0 0 0
0 0 0 0 0 0 0 0 0 0 0 0 0 0 0 0 0 0 0 0 0 0 0 0 0 0 0 0 0 0 0 0 0 0 0 0 0 0 0 0 0 0 0 0 0 0 0 0 0
0 0 0 0 0 0 0 0 0 0 0 0 0 0 0 0 0 0 0 0 0 0 0 0 0 0 0 0 0 0 0 0 0 0 0 0 0 0 0 0 0 0 0 0 0 0 0 0 0
0 0 0 0 0 0 0 0 0 0 0 0 0 0 0 0 0 0 0 0 0 0 0 0 0 0 0 0 0 0 0 0 0 0 0 0 0 0 0 0 0 0 0 0 0 0 0 0 0
0 0 0 0 0 0 0 0 0 0 0 0 0 0 0 0 0 0 0 0 0 0 0 0 0 0 0 0 0 0 0 0 0 0 0 0 0 0 0 0 0 0 0 0 0 0 0 0 0
0 0 0 0 0 0 0 0 0 0 0 0 0 0 0 0 0 0 0 0 0 0 0 0 0 0 0 0 0 0 0 0 0 0 0 0 0 0 0 0 0 0 0 0 0 0 0 0 0
0 0 0 0 0 0 0 0 0 0 0 0 0 0 0 0 0 0 0 0 0 0 0 0 0 0 0 0 0 0 0 0 0 0 0 0 0 0 0 0 0 0 0 0 0 0 0 0 0
0 0 0 0 0 0 0 0 0 0 0 0 0 0 0 0 0 0 0 0 0 0 0 0 0 0 0 0 0 0 0 0 0 0 0 0 0 0 0 0 0 0 0 0 0 0 0 0 0
0 0 0 0 0 0 0 0 0 0 0 0 0 0 0 0 0 0 0 0 0 0 0 0 0 0 0 0 0 0 0 0 0 0 0 0 0 0 0 0 0 0 0 0 0 0 0 0 0
0 0 0 0 0 0 0 0 0 0 0 0 0 0 0 0 0 0 0 0 0 0 0 0 0 0 0 0 0 0 0 0 0 0 0 0 0 0 0 0 0 0 0 0 0 0 0 0 0
0 0 0 0 0 0 0 0 0 0 0 0 0 0 0 0 0 0 0 0 0 0 0 0 0 0 0 0 0 0 0 0 0 0 0 0 0 0 0 0 0 0 0 0 0 0 0 0 0
0 0 0 0 0 0 0 0 0 0 0 0 0 0 0 0 0 0 0 0 0 0 0 0 0 0 0 0 0 0 0 0 0 0 0 0 0 0 0 0 0 0 0 0 0 0 0 0 0
0 0 0 0 0 0 0 0 0 0 0 0 0 0 0 0 0 0 0 0 0 0 0 0 0 0 0 0 0 0 0 0 0 0 0 0 0 0 0 0 0 0 0 0 0 0 0 0 0
0 0 0 0 0 0 0 0 0 0 0 0 0 0 0 0 0 0 0 0 0 0 0 0 0 0 0 0 0 0 0 0 0 0 0 0 0 0 0 0 0 0 0 0 0 0 0 0 0
0 0 0 0 0 0 0 0 0 0 0 0 0 0 0 0 0 0 0 0 0 0 0 0 0 0 0 0 0 0 0 0 0 0 0 0 0 0 0 0 0 0 0 0 0 0 0 0 0
0 0 0 0 0 0 0 0 0 0 0 0 0 0 0 0 0 0 0 0 0 0 0 0 0 0 0 0 0 0 0 0 0 0 0 0 0 0 0 0 0 0 0 0 0 0 0 0 0
Wind_Speed
11 11 8 3 3 5 3 2 3 4 4 7 4 3 3 8 6 5 4 6 10 14 15 16 17 16 14 13 12 11 10 10 9 9 9 9 10 10 10 11 11 12 12 12 12 13 13 13 13
10 8 4 3 4 5 2 3 4 6 6 3 1 2 2 8 8 9 5 6 11 14 14 14 18 16 15 14 12 11 11 10 9 9 9 9 9 9 9 10 10 11 11 11 11 11 12 12 12
10 8 4 3 5 4 2 5 5 6 4 0 1 2 3 5 7 6 7 8 10 12 13 15 19 17 16 15 13 12 11 10 10 9 8 8 8 9 9 9 9 9 10 10 10 10 10 10 10
6 3 4 5 7 4 2 6 6 1 4 2 3 1 6 6 5 7 8 8 10 11 12 15 19 17 16 15 13 12 11 10 9 9 8 8 8 8 8 7 7 8 8 8 9 9 9 9 9
3 4 5 6 7 1 3 6 4 4 1 3 1 3 6 5 9 10 8 8 10 11 12 15 19 17 16 15 14 13 11 10 9 8 8 7 7 7 7 6 6 6 6 6 7 7 7 7 7
3 4 5 6 5 3 3 4 2 5 1 2 1 3 6 5 8 8 8 7 9 10 12 15 18 17 16 15 14 13 12 11 9 9 8 7 7 6 6 5 4 4 4 4 5 5 5 5 6
4 4 6 6 1 2 2 4 1 3 4 2 2 3 7 5 5 6 7 6 8 10 11 12 11 12 15 15 14 13 12 11 10 9 8 7 7 6 6 5 4 3 2 2 2 2 3 3 3
3 4 6 4 2 0 4 4 1 3 5 4 3 3 7 4 4 5 5 4 6 8 10 13 10 9 8 9 12 13 12 11 10 9 8 7 6 6 6 6 6 4 3 2 2 2 2 3 3
3 3 5 3 2 1 3 2 2 1 3 4 2 2 7 7 6 5 4 3 4 6 7 11 11 10 9 8 11 10 11 10 9 8 8 7 4 5 6 8 8 7 5 5 5 5 5 6 6
2 3 7 5 4 4 5 3 3 3 5 5 1 5 7 6 6 6 6 7 7 7 7 7 10 11 9 8 8 6 6 6 5 5 6 4 4 3 4 8 9 8 7 7 8 8 7 7 4
5 6 7 6 5 6 6 6 5 5 5 3 4 3 3 4 4 5 6 7 9 9 7 6 7 10 9 6 6 4 4 4 5 6 6 5 4 2 3 3 4 5 6 5 6 6 4 5 4
5 7 6 4 4 2 4 5 6 5 4 2 3 3 2 1 3 5 5 5 8 9 9 7 6 7 8 7 5 5 4 4 4 5 5 4 3 2 2 2 3 4 3 5 4 3 5 6 6
6 7 7 3 1 3 5 6 6 7 2 3 2 1 2 2 2 2 2 3 6 8 9 7 7 6 6 6 4 4 4 5 5 4 4 4 3 3 3 2 3 3 3 3 4 4 5 5 5
5 6 6 5 5 5 6 7 6 4 3 2 2 1 2 3 3 1 1 2 4 7 8 7 7 7 6 5 4 3 3 4 4 4 5 4 3 3 3 3 3 3 3 3 3 4 4 4 4
4 6 9 10 8 2 1 7 8 5 4 4 4 5 4 3 3 3 2 1 3 6 7 7 7 6 7 6 5 3 3 3 3 3 5 5 4 4 3 3 3 3 3 4 3 4 3 3 4
6 5 6 4 5 5 2 6 4 7 4 3 3 5 6 4 4 4 3 2 3 6 6 6 5 5 6 5 4 3 2 3 3 2 3 4 5 4 3 3 3 3 3 2 2 3 3 4 4
6 6 8 4 6 6 6 5 4 6 5 4 4 6 7 6 6 5 4 4 5 6 7 7 6 4 4 4 3 2 1 1 1 1 1 2 3 3 3 3 3 3 3 3 3 3 3 4 5
4 5 6 2 6 4 6 7 5 6 6 5 5 6 7 6 6 6 6 6 7 7 8 7 6 4 5 3 3 2 2 1 0 0 1 1 2 3 3 2 3 3 3 3 3 4 4 4 5
7 7 10 6 3 2 6 9 7 6 6 5 6 7 8 7 6 6 6 7 7 7 7 7 6 5 4 3 2 2 2 1 1 1 1 1 2 2 2 1 2 3 3 4 4 3 4 4 3
5 8 9 7 3 1 6 10 7 6 7 6 7 8 9 8 7 6 7 6 7 7 7 7 6 5 5 3 3 2 2 1 1 1 0 1 1 1 1 2 2 3 3 4 4 4 3 3 2
7 8 8 7 3 4 5 8 8 6 5 4 6 9 9 9 8 7 7 7 6 6 6 6 6 6 6 5 3 2 1 0 0 0 0 1 0 1 1 2 2 3 3 3 4 4 4 4 4
7 4 4 4 4 5 5 5 4 9 7 6 6 8 9 9 8 8 8 7 6 6 6 7 7 6 5 4 3 2 2 1 1 1 1 1 2 1 0 1 2 3 3 4 4 4 4 4 4
2 3 3 4 5 7 6 6 6 10 9 10 9 8 9 9 9 8 8 8 7 6 5 6 7 6 5 4 3 3 3 2 1 1 1 2 1 2 2 2 2 3 3 4 5 5 4 4 5
2 1 4 3 3 6 9 8 5 9 12 13 12 10 10 10 9 8 8 8 7 5 5 5 6 5 4 4 4 4 4 3 3 3 3 2 2 1 1 1 2 3 4 5 5 5 6 5 6
2 3 3 4 4 8 2 4 5 5 9 14 15 13 11 10 9 9 9 8 7 6 5 5 6 5 4 4 3 4 3 2 2 2 2 3 2 2 2 2 3 4 4 5 5 5 6 6 7
7 5 4 3 3 0 1 5 2 5 4 8 14 14 12 11 9 9 9 8 7 7 6 5 5 5 4 3 3 3 2 1 1 2 2 3 2 2 3 4 4 5 6 6 5 5 6 6 7
5 7 3 4 6 4 5 4 3 3 3 3 12 13 13 11 10 10 9 8 8 7 6 6 6 5 4 3 3 3 2 2 2 2 3 2 3 3 4 5 6 6 6 6 6 5 7 6 7
3 3 3 3 4 4 6 6 5 6 5 4 8 12 12 11 10 10 8 8 7 6 5 5 5 5 3 3 2 1 1 2 2 3 4 4 4 4 5 6 6 6 7 7 6 6 7 7 7
6 3 4 4 3 2 4 2 3 5 8 9 8 9 11 11 11 9 8 8 8 7 6 5 5 4 3 2 2 1 1 2 3 3 4 4 4 5 6 6 6 7 7 7 7 7 7 8 8
6 7 7 4 4 4 2 4 2 5 5 6 7 7 9 11 10 9 9 8 7 7 6 5 5 4 3 2 1 1 2 3 3 4 5 5 5 6 6 7 7 8 8 8 8 8 8 8 9
Wind_Direction
280 259 251 256 251 243 242 97 74 70 69 64 54 350 15 61 41 88 149 143 126 137 146 160 159 157 154 149 142 136 129 121 112 105 98 92 88 82 77 74 70 67 64 63 63 60 59 60 60
282 260 247 245 252 256 190 113 89 67 63 65 137 276 63 85 90 113 135 132 131 140 146 160 160 160 157 152 148 144 137 131 122 115 107 101 95 89 83 77 73 69 65 63 64 63 61 60 60
269 262 239 230 246 266 85 93 73 85 97 288 230 135 47 77 86 101 135 144 135 141 149 159 161 162 161 156 154 150 144 138 131 122 116 110 102 94 87 80 75 71 67 64 62 63 61 59 58
243 226 241 243 244 227 49 89 64 46 137 166 302 240 106 66 75 109 135 148 140 144 148 155 163 165 163 160 158 155 151 146 140 134 127 120 111 102 94 86 80 74 69 65 62 59 58 58 56
244 235 230 245 257 120 82 66 60 291 183 145 294 315 85 80 100 118 142 153 146 149 146 154 165 167 166 164 163 161 158 155 151 146 141 133 124 116 109 101 91 81 74 65 60 57 54 52 50
237 243 234 234 225 141 124 115 164 269 294 120 174 287 96 109 104 121 137 158 149 147 143 153 167 169 169 169 168 166 165 164 161 157 155 148 141 134 131 124 112 96 81 67 57 51 47 42 41
253 258 265 270 255 128 127 81 339 320 320 9 58 324 102 85 94 124 141 165 145 143 141 149 165 170 173 173 173 171 171 171 171 169 167 162 159 160 159 154 149 140 119 89 52 33 24 17 14
302 278 265 277 292 309 97 88 359 320 318 31 34 322 97 125 128 128 135 148 139 142 146 151 163 168 170 173 176 175 176 179 179 177 173 171 177 186 188 182 182 182 188 205 234 272 290 298 297
291 288 281 290 336 340 88 119 240 165 281 281 230 90 123 129 133 131 132 142 146 151 156 155 164 167 169 173 177 175 179 184 181 178 172 171 192 197 201 202 189 196 213 230 240 251 260 265 263
245 276 282 326 2 357 10 2 322 306 278 278 288 92 118 137 156 167 175 177 174 173 174 167 164 164 168 175 166 172 177 177 182 181 175 184 215 207 170 171 184 204 224 239 248 251 259 259 249
239 252 283 324 12 11 346 322 304 283 280 323 11 54 132 161 183 199 205 189 177 173 173 176 166 161 164 163 158 168 173 172 187 197 183 187 204 180 150 163 181 207 222 235 243 240 234 231 229
269 287 295 320 42 15 303 299 302 292 291 41 41 14 345 236 204 204 219 206 164 161 166 174 165 154 159 159 161 166 172 171 179 195 194 182 182 183 199 203 192 195 198 208 217 215 234 234 228
260 271 288 306 294 251 270 277 277 268 287 49 44 357 312 316 298 207 203 188 145 151 159 169 163 157 156 156 165 170 174 172 178 181 194 186 170 183 208 223 220 219 216 207 210 226 247 253 245
321 326 303 275 249 240 248 263 251 233 125 154 174 118 47 18 353 6 115 171 150 146 153 160 164 161 155 160 167 173 180 169 176 173 184 195 188 193 206 226 231 228 229 236 232 239 250 256 255
312 286 274 245 220 191 241 262 225 168 156 200 172 126 96 56 36 33 71 126 145 140 142 148 161 163 159 167 179 176 181 172 176 178 184 194 201 210 215 223 237 237 234 236 243 258 273 274 269
237 247 257 203 159 131 184 270 141 136 180 199 150 121 110 87 68 56 65 82 108 119 125 125 132 154 157 160 170 175 182 174 166 178 191 201 206 212 225 234 242 248 251 245 242 246 267 272 267
227 243 247 171 174 163 206 265 148 162 189 198 174 134 118 98 80 69 69 79 94 106 108 110 116 137 138 139 140 143 128 115 121 166 206 206 215 220 228 236 244 256 258 251 245 244 244 267 277
293 294 294 223 163 188 233 261 215 185 196 203 165 131 113 99 85 79 73 69 76 89 100 108 113 117 113 111 119 104 80 51 80 216 248 235 235 236 237 247 264 271 271 266 255 254 257 253 258
317 315 309 312 118 186 251 261 244 183 186 199 169 137 119 113 108 98 91 85 83 85 97 106 111 107 103 103 110 114 133 175 196 226 281 288 265 255 242 246 269 277 273 267 262 263 274 279 278
299 285 283 288 130 179 269 270 248 186 189 188 165 141 132 130 120 112 106 101 99 99 102 105 107 105 98 94 92 91 95 84 82 44 34 325 310 287 246 239 251 257 262 273 272 265 268 273 266
257 255 268 296 331 240 258 279 230 173 163 158 153 141 140 142 137 125 111 102 97 97 103 104 103 99 97 100 96 84 78 41 63 133 149 266 291 333 301 271 265 270 261 260 261 255 254 264 267
264 282 277 300 306 282 203 276 217 164 168 177 170 150 143 138 134 130 123 112 104 100 99 103 105 103 104 106 100 111 102 93 103 111 182 246 191 170 258 296 292 284 276 270 265 253 243 244 259
248 27 323 281 271 280 257 250 259 153 181 189 183 167 149 143 138 133 127 123 115 108 107 108 106 104 102 97 90 70 61 48 44 20 13 345 297 175 195 220 264 277 272 269 270 274 264 247 244
95 244 253 250 252 260 234 216 255 182 195 182 179 170 154 147 141 134 129 125 120 120 117 117 112 109 106 99 96 82 64 27 22 12 6 345 327 310 269 217 256 268 266 263 262 261 261 256 255
190 223 246 216 213 241 217 202 258 171 176 175 174 167 158 152 150 148 149 145 142 140 136 130 123 120 112 100 89 95 84 29 27 22 353 336 327 325 321 332 293 281 273 269 263 260 258 256 256
194 222 245 275 263 17 183 231 239 64 59 158 160 159 157 159 160 160 161 153 148 149 148 136 123 114 101 92 77 74 79 63 30 4 330 312 302 298 307 308 291 284 281 278 272 266 260 257 254
196 212 260 313 303 285 253 204 110 78 47 124 154 159 165 167 165 163 159 152 150 153 151 137 127 116 101 88 72 51 35 42 9 329 310 301 294 292 299 295 288 284 283 280 278 269 266 264 260
292 300 178 205 242 264 265 237 191 174 188 189 172 169 169 166 163 161 158 153 150 147 136 124 120 117 108 86 81 58 360 17 343 313 302 296 296 299 299 293 289 287 285 283 280 277 273 274 271
187 223 234 245 266 267 292 328 33 150 173 184 195 180 172 169 165 161 158 151 142 137 137 133 128 123 116 94 67 16 351 339 314 298 291 293 293 293 290 289 289 287 285 283 281 279 283 283 283
196 204 204 218 241 216 240 274 61 80 118 159 184 183 172 165 160 155 151 145 144 148 149 144 140 135 130 112 47 327 313 301 296 293 297 301 298 295 291 289 286 284 284 284 284 285 286 285 286